Time,TemperatureF,DewpointF,PressureIn,WindDirection,WindDirectionDegrees,WindSpeedMPH,WindSpeedGustMPH,Humidity,HourlyPrecipIn,Conditions,Clouds,dailyrainin,SoftwareType,DateUTC
2013-03-20 00:02:00,4.0,-9.0,-100.00,WNW,300,7.0,11.0,54,0.00,,,0.00,,2013-03-20 05:02:00,
2013-03-20 00:12:00,4.0,-8.0,-100.00,WNW,290,7.0,12.0,55,0.00,,,0.00,,2013-03-20 05:12:00,
2013-03-20 00:22:00,4.0,-8.0,-100.00,WNW,295,6.0,12.0,56,0.00,,,0.00,,2013-03-20 05:22:00,
2013-03-20 00:32:00,4.0,-8.0,-100.00,WNW,285,6.0,12.0,56,0.00,,,0.00,,2013-03-20 05:32:00,
2013-03-20 00:42:00,4.0,-8.0,-100.00,NW,310,5.0,12.0,57,0.00,,,0.00,,2013-03-20 05:42:00,
2013-03-20 00:52:00,4.0,-8.0,-100.00,NW,310,6.0,11.0,58,0.00,,,0.00,,2013-03-20 05:52:00,
2013-03-20 01:02:00,4.0,-8.0,-100.00,WNW,295,9.0,16.0,59,0.00,,,0.00,,2013-03-20 06:02:00,
2013-03-20 01:12:00,4.0,-8.0,-100.00,WNW,290,6.0,14.0,59,0.00,,,0.00,,2013-03-20 06:12:00,
2013-03-20 01:22:00,4.0,-8.0,-100.00,West,270,5.0,14.0,59,0.00,,,0.00,,2013-03-20 06:22:00,
2013-03-20 01:32:00,3.0,-8.0,-100.00,WNW,295,5.0,12.0,59,0.00,,,0.00,,2013-03-20 06:32:00,
2013-03-20 01:42:00,4.0,-8.0,-100.00,NW,310,6.0,12.0,59,0.00,,,0.00,,2013-03-20 06:42:00,
2013-03-20 01:52:00,4.0,-8.0,-100.00,NW,305,7.0,14.0,59,0.00,,,0.00,,2013-03-20 06:52:00,
2013-03-20 02:02:00,3.0,-8.0,-100.00,WNW,285,7.0,13.0,59,0.00,,,0.00,,2013-03-20 07:02:00,
2013-03-20 02:12:00,3.0,-8.0,-100.00,WNW,290,6.0,11.0,59,0.00,,,0.00,,2013-03-20 07:12:00,
2013-03-20 02:22:00,3.0,-8.0,-100.00,WNW,295,7.0,13.0,60,0.00,,,0.00,,2013-03-20 07:22:00,
2013-03-20 02:32:00,3.0,-8.0,-100.00,WNW,290,8.0,14.0,60,0.00,,,0.00,,2013-03-20 07:32:00,
2013-03-20 02:42:00,3.0,-8.0,-100.00,NW,315,9.0,14.0,60,0.00,,,0.00,,2013-03-20 07:42:00,
2013-03-20 02:52:00,3.0,-8.0,-100.00,WNW,295,9.0,12.0,60,0.00,,,0.00,,2013-03-20 07:52:00,
2013-03-20 03:02:00,3.0,-8.0,-100.00,WNW,295,7.0,14.0,60,0.00,,,0.00,,2013-03-20 08:02:00,
2013-03-20 03:12:00,3.0,-8.0,-100.00,NW,305,12.0,19.0,60,0.00,,,0.00,,2013-03-20 08:12:00,
2013-03-20 03:22:00,3.0,-8.0,-100.00,WNW,290,7.0,16.0,60,0.00,,,0.00,,2013-03-20 08:22:00,
2013-03-20 03:32:00,3.0,-8.0,-100.00,NW,310,9.0,14.0,60,0.00,,,0.00,,2013-03-20 08:32:00,
2013-03-20 03:42:00,2.0,-8.0,-100.00,WNW,295,6.0,14.0,60,0.00,,,0.00,,2013-03-20 08:42:00,
2013-03-20 03:52:00,3.0,-8.0,-100.00,NW,305,10.0,18.0,60,0.00,,,0.00,,2013-03-20 08:52:00,
2013-03-20 04:02:00,2.0,-8.0,-100.00,West,275,8.0,12.0,60,0.00,,,0.00,,2013-03-20 09:02:00,
2013-03-20 04:12:00,2.0,-8.0,-100.00,WNW,300,9.0,15.0,61,0.00,,,0.00,,2013-03-20 09:12:00,
2013-03-20 04:22:00,3.0,-8.0,-100.00,NW,305,8.0,14.0,61,0.00,,,0.00,,2013-03-20 09:22:00,
2013-03-20 04:32:00,2.0,-8.0,-100.00,WNW,300,6.0,13.0,61,0.00,,,0.00,,2013-03-20 09:32:00,
2013-03-20 04:43:00,2.0,-8.0,-100.00,WNW,290,7.0,12.0,61,0.00,,,0.00,,2013-03-20 09:43:00,
2013-03-20 04:52:00,2.0,-8.0,-100.00,WNW,290,9.0,14.0,61,0.00,,,0.00,,2013-03-20 09:52:00,
2013-03-20 05:03:00,2.0,-8.0,-100.00,WNW,295,6.0,12.0,62,0.00,,,0.00,,2013-03-20 10:03:00,
2013-03-20 05:12:00,1.0,-8.0,-100.00,West,275,6.0,13.0,62,0.00,,,0.00,,2013-03-20 10:12:00,
2013-03-20 05:22:00,2.0,-8.0,-100.00,WNW,295,6.0,12.0,62,0.00,,,0.00,,2013-03-20 10:22:00,
2013-03-20 05:32:00,2.0,-8.0,-100.00,West,280,8.0,15.0,62,0.00,,,0.00,,2013-03-20 10:32:00,
2013-03-20 05:42:00,2.0,-8.0,-100.00,West,280,7.0,17.0,62,0.00,,,0.00,,2013-03-20 10:42:00,
2013-03-20 05:52:00,2.0,-8.0,-100.00,WNW,295,7.0,12.0,62,0.00,,,0.00,,2013-03-20 10:52:00,
2013-03-20 06:03:00,1.0,-8.0,-100.00,WNW,285,6.0,13.0,62,0.00,,,0.00,,2013-03-20 11:03:00,
2013-03-20 06:12:00,2.0,-8.0,-100.00,West,280,7.0,13.0,63,0.00,,,0.00,,2013-03-20 11:12:00,
2013-03-20 06:22:00,1.0,-8.0,-100.00,WNW,295,7.0,14.0,63,0.00,,,0.00,,2013-03-20 11:22:00,
2013-03-20 06:32:00,1.0,-8.0,-100.00,WNW,285,6.0,11.0,63,0.00,,,0.00,,2013-03-20 11:32:00,
2013-03-20 06:42:00,1.0,-9.0,-100.00,WNW,290,6.0,10.0,63,0.00,,,0.00,,2013-03-20 11:42:00,
2013-03-20 06:52:00,1.0,-8.0,-100.00,WNW,285,9.0,13.0,63,0.00,,,0.00,,2013-03-20 11:52:00,
2013-03-20 07:02:00,1.0,-8.0,-100.00,WNW,285,7.0,11.0,63,0.00,,,0.00,,2013-03-20 12:02:00,
2013-03-20 07:12:00,1.0,-8.0,-100.00,WNW,290,6.0,10.0,63,0.00,,,0.00,,2013-03-20 12:12:00,
2013-03-20 07:22:00,1.0,-9.0,-100.00,WNW,295,8.0,12.0,64,0.00,,,0.00,,2013-03-20 12:22:00,
2013-03-20 07:32:00,1.0,-8.0,-100.00,WNW,295,7.0,12.0,64,0.00,,,0.00,,2013-03-20 12:32:00,
2013-03-20 07:42:00,2.0,-8.0,-100.00,WNW,290,8.0,15.0,63,0.00,,,0.00,,2013-03-20 12:42:00,
2013-03-20 07:52:00,2.0,-8.0,-100.00,WNW,300,8.0,14.0,63,0.00,,,0.00,,2013-03-20 12:52:00,
2013-03-20 08:03:00,2.0,-8.0,-100.00,NW,305,9.0,14.0,63,0.00,,,0.00,,2013-03-20 13:03:00,
2013-03-20 08:12:00,3.0,-8.0,-100.00,WNW,300,9.0,17.0,61,0.00,,,0.00,,2013-03-20 13:12:00,
2013-03-20 08:22:00,3.0,-8.0,-100.00,NW,305,8.0,19.0,60,0.00,,,0.00,,2013-03-20 13:22:00,
2013-03-20 08:32:00,4.0,-8.0,-100.00,NW,305,11.0,18.0,60,0.00,,,0.00,,2013-03-20 13:32:00,
2013-03-20 08:42:00,4.0,-8.0,-100.00,NW,310,8.0,19.0,58,0.00,,,0.00,,2013-03-20 13:42:00,
2013-03-20 08:52:00,5.0,-8.0,-100.00,NW,305,7.0,16.0,57,0.00,,,0.00,,2013-03-20 13:52:00,
2013-03-20 09:02:00,6.0,-6.0,-100.00,WNW,300,9.0,18.0,56,0.00,,,0.00,,2013-03-20 14:02:00,
2013-03-20 09:12:00,6.0,-6.0,-100.00,NW,310,8.0,20.0,56,0.00,,,0.00,,2013-03-20 14:12:00,
2013-03-20 09:22:00,7.0,-6.0,-100.00,WNW,295,11.0,19.0,54,0.00,,,0.00,,2013-03-20 14:22:00,
2013-03-20 09:33:00,7.0,-6.0,-100.00,NW,315,13.0,21.0,53,0.00,,,0.00,,2013-03-20 14:33:00,
2013-03-20 09:42:00,8.0,-6.0,-100.00,NW,305,9.0,21.0,52,0.00,,,0.00,,2013-03-20 14:42:00,
2013-03-20 09:52:00,9.0,-6.0,-100.00,NW,310,9.0,23.0,50,0.00,,,0.00,,2013-03-20 14:52:00,
2013-03-20 10:02:00,10.0,-6.0,-100.00,NW,310,8.0,21.0,49,0.00,,,0.00,,2013-03-20 15:02:00,
2013-03-20 10:12:00,11.0,-6.0,-100.00,NW,305,11.0,21.0,48,0.00,,,0.00,,2013-03-20 15:12:00,
2013-03-20 10:22:00,11.0,-6.0,-100.00,WNW,300,14.0,21.0,46,0.00,,,0.00,,2013-03-20 15:22:00,
2013-03-20 10:33:00,12.0,-6.0,-100.00,NW,310,11.0,18.0,46,0.00,,,0.00,,2013-03-20 15:33:00,
2013-03-20 10:43:00,12.0,-6.0,-100.00,WNW,300,9.0,18.0,45,0.00,,,0.00,,2013-03-20 15:43:00,
2013-03-20 10:52:00,13.0,-4.0,-100.00,NW,320,9.0,21.0,45,0.00,,,0.00,,2013-03-20 15:52:00,
2013-03-20 11:03:00,14.0,-4.0,-100.00,NW,310,10.0,19.0,44,0.00,,,0.00,,2013-03-20 16:03:00,
2013-03-20 11:12:00,13.0,-4.0,-100.00,NW,310,14.0,22.0,43,0.00,,,0.00,,2013-03-20 16:12:00,
2013-03-20 11:23:00,14.0,-4.0,-100.00,WNW,290,11.0,22.0,43,0.00,,,0.00,,2013-03-20 16:23:00,
2013-03-20 11:32:00,15.0,-4.0,-100.00,NW,315,11.0,17.0,42,0.00,,,0.00,,2013-03-20 16:32:00,
2013-03-20 11:42:00,15.0,-4.0,-100.00,WNW,300,9.0,19.0,42,0.00,,,0.00,,2013-03-20 16:42:00,
2013-03-20 11:52:00,16.0,-4.0,-100.00,NNW,330,7.0,17.0,42,0.00,,,0.00,,2013-03-20 16:52:00,
2013-03-20 12:03:00,17.0,-2.0,-100.00,NW,315,7.0,24.0,41,0.00,,,0.00,,2013-03-20 17:03:00,
2013-03-20 12:12:00,18.0,-2.0,-100.00,NW,315,9.0,19.0,40,0.00,,,0.00,,2013-03-20 17:12:00,
2013-03-20 12:22:00,18.0,-2.0,-100.00,NW,315,10.0,21.0,40,0.00,,,0.00,,2013-03-20 17:22:00,
2013-03-20 12:32:00,19.0,-2.0,-100.00,NW,310,10.0,24.0,39,0.00,,,0.00,,2013-03-20 17:32:00,
2013-03-20 12:42:00,18.0,-2.0,-100.00,NW,305,11.0,21.0,39,0.00,,,0.00,,2013-03-20 17:42:00,
2013-03-20 12:52:00,18.0,-2.0,-100.00,WNW,290,10.0,20.0,39,0.00,,,0.00,,2013-03-20 17:52:00,
2013-03-20 13:02:00,19.0,-2.0,-100.00,WNW,295,11.0,18.0,39,0.00,,,0.00,,2013-03-20 18:02:00,
2013-03-20 13:12:00,20.0,-2.0,-100.00,WNW,285,9.0,18.0,38,0.00,,,0.00,,2013-03-20 18:12:00,
2013-03-20 13:22:00,19.0,-2.0,-100.00,NW,315,14.0,24.0,38,0.00,,,0.00,,2013-03-20 18:22:00,
2013-03-20 13:33:00,20.0,0.0,-100.00,NW,310,9.0,24.0,39,0.00,,,0.00,,2013-03-20 18:33:00,
2013-03-20 13:42:00,20.0,0.0,-100.00,WNW,285,13.0,21.0,38,0.00,,,0.00,,2013-03-20 18:42:00,
2013-03-20 13:52:00,20.0,0.0,-100.00,WNW,290,13.0,20.0,38,0.00,,,0.00,,2013-03-20 18:52:00,
2013-03-20 14:02:00,20.0,0.0,-100.00,WNW,285,10.0,20.0,39,0.00,,,0.00,,2013-03-20 19:02:00,
2013-03-20 14:12:00,20.0,0.0,-100.00,NW,310,7.0,20.0,39,0.00,,,0.00,,2013-03-20 19:12:00,
2013-03-20 14:22:00,20.0,0.0,-100.00,NW,305,12.0,17.0,39,0.00,,,0.00,,2013-03-20 19:22:00,
2013-03-20 14:32:00,22.0,1.0,-100.00,NW,310,10.0,18.0,38,0.00,,,0.00,,2013-03-20 19:32:00,
2013-03-20 14:42:00,21.0,0.0,-100.00,West,270,12.0,20.0,39,0.00,,,0.00,,2013-03-20 19:42:00,
2013-03-20 14:52:00,21.0,0.0,-100.00,NW,305,12.0,18.0,39,0.00,,,0.00,,2013-03-20 19:52:00,
2013-03-20 15:02:00,22.0,0.0,-100.00,WNW,290,10.0,20.0,38,0.00,,,0.00,,2013-03-20 20:02:00,
2013-03-20 15:12:00,21.0,0.0,-100.00,WNW,300,11.0,20.0,38,0.00,,,0.00,,2013-03-20 20:12:00,
2013-03-20 15:22:00,21.0,0.0,-100.00,WNW,300,8.0,18.0,38,0.00,,,0.00,,2013-03-20 20:22:00,
2013-03-20 15:32:00,21.0,0.0,-100.00,NW,305,9.0,20.0,38,0.00,,,0.00,,2013-03-20 20:32:00,
2013-03-20 15:42:00,21.0,0.0,-100.00,WNW,285,12.0,20.0,38,0.00,,,0.00,,2013-03-20 20:42:00,
2013-03-20 15:52:00,22.0,1.0,-100.00,WNW,300,7.0,18.0,38,0.00,,,0.00,,2013-03-20 20:52:00,
2013-03-20 16:02:00,22.0,0.0,-100.00,WNW,295,10.0,16.0,37,0.00,,,0.00,,2013-03-20 21:02:00,
2013-03-20 16:12:00,22.0,0.0,-100.00,West,265,11.0,18.0,37,0.00,,,0.00,,2013-03-20 21:12:00,
2013-03-20 16:22:00,21.0,0.0,-100.00,NW,305,10.0,20.0,38,0.00,,,0.00,,2013-03-20 21:22:00,
2013-03-20 16:33:00,20.0,0.0,-100.00,NW,320,11.0,17.0,38,0.00,,,0.00,,2013-03-20 21:33:00,
2013-03-20 16:42:00,21.0,0.0,-100.00,WNW,290,11.0,17.0,38,0.00,,,0.00,,2013-03-20 21:42:00,
2013-03-20 16:52:00,21.0,0.0,-100.00,NW,315,6.0,15.0,39,0.00,,,0.00,,2013-03-20 21:52:00,
2013-03-20 17:03:00,21.0,0.0,-100.00,WNW,285,11.0,16.0,39,0.00,,,0.00,,2013-03-20 22:03:00,
2013-03-20 17:12:00,21.0,0.0,-100.00,NW,305,9.0,16.0,39,0.00,,,0.00,,2013-03-20 22:12:00,
2013-03-20 17:23:00,21.0,0.0,-100.00,NW,305,11.0,20.0,39,0.00,,,0.00,,2013-03-20 22:23:00,
2013-03-20 17:32:00,20.0,0.0,-100.00,WNW,300,9.0,16.0,39,0.00,,,0.00,,2013-03-20 22:32:00,
2013-03-20 17:42:00,20.0,0.0,-100.00,NW,315,9.0,13.0,39,0.00,,,0.00,,2013-03-20 22:42:00,
2013-03-20 17:52:00,19.0,-2.0,-100.00,NW,310,9.0,16.0,39,0.00,,,0.00,,2013-03-20 22:52:00,
2013-03-20 18:02:00,19.0,0.0,-100.00,NW,305,7.0,14.0,40,0.00,,,0.00,,2013-03-20 23:02:00,
2013-03-20 18:12:00,18.0,-2.0,-100.00,NW,320,9.0,18.0,40,0.00,,,0.00,,2013-03-20 23:12:00,
2013-03-20 18:22:00,18.0,0.0,-100.00,NW,305,4.0,12.0,41,0.00,,,0.00,,2013-03-20 23:22:00,
2013-03-20 18:32:00,18.0,-2.0,-100.00,NW,325,7.0,14.0,41,0.00,,,0.00,,2013-03-20 23:32:00,
2013-03-20 18:42:00,17.0,-2.0,-100.00,NW,310,7.0,13.0,41,0.00,,,0.00,,2013-03-20 23:42:00,
2013-03-20 18:52:00,17.0,-2.0,-100.00,NW,310,8.0,15.0,42,0.00,,,0.00,,2013-03-20 23:52:00,
2013-03-20 19:02:00,16.0,-2.0,-100.00,NW,315,8.0,12.0,43,0.00,,,0.00,,2013-03-21 00:02:00,
2013-03-20 19:12:00,16.0,-2.0,-100.00,NNW,330,6.0,12.0,43,0.00,,,0.00,,2013-03-21 00:12:00,
2013-03-20 19:22:00,15.0,-2.0,-100.00,NNW,340,3.0,10.0,44,0.00,,,0.00,,2013-03-21 00:22:00,
2013-03-20 19:32:00,14.0,-2.0,-100.00,NW,305,5.0,11.0,45,0.00,,,0.00,,2013-03-21 00:32:00,
2013-03-20 19:42:00,14.0,-4.0,-100.00,NW,305,5.0,11.0,46,0.00,,,0.00,,2013-03-21 00:42:00,
2013-03-20 19:52:00,13.0,-4.0,-100.00,NW,305,6.0,11.0,47,0.00,,,0.00,,2013-03-21 00:52:00,
2013-03-20 20:02:00,12.0,-4.0,-100.00,NW,310,4.0,11.0,48,0.00,,,0.00,,2013-03-21 01:02:00,
2013-03-20 20:12:00,11.0,-4.0,-100.00,WNW,295,3.0,9.0,49,0.00,,,0.00,,2013-03-21 01:12:00,
2013-03-20 20:22:00,11.0,-4.0,-100.00,NW,305,4.0,7.0,50,0.00,,,0.00,,2013-03-21 01:22:00,
2013-03-20 20:32:00,10.0,-4.0,-100.00,WNW,295,4.0,8.0,51,0.00,,,0.00,,2013-03-21 01:32:00,
2013-03-20 20:42:00,10.0,-4.0,-100.00,NW,315,6.0,7.0,53,0.00,,,0.00,,2013-03-21 01:42:00,
2013-03-20 20:52:00,10.0,-4.0,-100.00,WNW,290,4.0,9.0,53,0.00,,,0.00,,2013-03-21 01:52:00,
2013-03-20 21:02:00,9.0,-4.0,-100.00,NW,320,5.0,6.0,55,0.00,,,0.00,,2013-03-21 02:02:00,
2013-03-20 21:12:00,9.0,-4.0,-100.00,NW,315,4.0,6.0,55,0.00,,,0.00,,2013-03-21 02:12:00,
2013-03-20 21:22:00,8.0,-4.0,-100.00,NW,310,4.0,7.0,57,0.00,,,0.00,,2013-03-21 02:22:00,
2013-03-20 21:32:00,8.0,-4.0,-100.00,West,275,2.0,9.0,58,0.00,,,0.00,,2013-03-21 02:32:00,
2013-03-20 21:42:00,8.0,-4.0,-100.00,West,275,2.0,9.0,58,0.00,,,0.00,,2013-03-21 02:42:00,
2013-03-20 22:02:00,6.0,-4.0,-100.00,NW,305,2.0,6.0,61,0.00,,,0.00,,2013-03-21 03:02:00,
2013-03-20 22:12:00,6.0,-4.0,-100.00,West,280,3.0,6.0,62,0.00,,,0.00,,2013-03-21 03:12:00,
2013-03-20 22:22:00,5.0,-4.0,-100.00,WNW,290,3.0,6.0,63,0.00,,,0.00,,2013-03-21 03:22:00,
2013-03-20 22:32:00,5.0,-4.0,-100.00,WNW,285,3.0,6.0,65,0.00,,,0.00,,2013-03-21 03:32:00,
2013-03-20 22:43:00,4.0,-4.0,-100.00,WNW,290,4.0,6.0,66,0.00,,,0.00,,2013-03-21 03:43:00,
2013-03-20 22:53:00,4.0,-4.0,-100.00,WNW,295,3.0,4.0,67,0.00,,,0.00,,2013-03-21 03:53:00,
2013-03-20 23:03:00,4.0,-4.0,-100.00,WNW,300,3.0,5.0,68,0.00,,,0.00,,2013-03-21 04:03:00,
2013-03-20 23:13:00,3.0,-6.0,-100.00,WNW,295,4.0,6.0,69,0.00,,,0.00,,2013-03-21 04:13:00,
2013-03-20 23:23:00,2.0,-4.0,-100.00,WNW,290,3.0,6.0,71,0.00,,,0.00,,2013-03-21 04:23:00,
2013-03-20 23:33:00,2.0,-4.0,-100.00,WNW,285,4.0,4.0,72,0.00,,,0.00,,2013-03-21 04:33:00,
2013-03-20 23:43:00,2.0,-4.0,-100.00,WNW,295,4.0,6.0,73,0.00,,,0.00,,2013-03-21 04:43:00,
2013-03-20 23:52:00,2.0,-4.0,-100.00,WNW,290,4.0,6.0,75,0.00,,,0.00,,2013-03-21 04:52:00,